Terminal Aerodrome Forecast
Issued by NWS Portland, OR

Home | Current Version | Previous Version | Text Only | Print | Product List | Glossary On
Versions: 1 2 3 4 5 6 7 8 9 10 11 12 13 14 15 16 17 18 19 20 21 22 23 24 25 26 27 28 29 30 31 32 33
000
FTUS46 KPQR 230258 AAA
TAFTTD
TAF AMD
KTTD 230258Z 2303/2324 VRB04KT P6SM SCT110
     FM230500 VRB04KT P6SM -RA BKN110
     FM231200 10005KT P6SM VCSH OVC050=

USA.gov is the U.S. government's official web portal to all federal, state and local government web resources and services.